Location: Bothwell
(42.3833°S, 147.0000°E)
Time: 21:20:37
(UTC+11:00)

MOZHAYETS 4 - Pass Details

Date: 27 September 2022
Orbit: 659 x 678 km, 98.2° (Epoch: 25 November)

Event Time Altitude Azimuth Distance (km) Brightness Sun altitude
Rises 04:44:40 0° 182° (S) 3,037 11.3 -13.4°
Reaches altitude 10° 04:47:25 10° 199° (SSW) 2,118 10.3 -12.9°
Maximum altitude 04:50:41 20° 244° (WSW) 1,572 9.2 -12.3°
Enters shadow 04:52:19 16° 271° (W) 1,720 9.2 -12.0°
